Total_Precipitation_Accumulation
2.30 1.88 3.14 3.24 2.95 2.64 2.43 2.46 2.61 2.60 2.64 2.56 2.42 2.16 1.97 1.89 1.89 1.89 1.75 1.55 1.45 1.51 1.78 1.93 1.81 1.79 1.62 1.57 1.60 1.64 1.72 1.72 1.72 1.55 1.40 1.34 1.29 1.38 1.55 1.70 1.97 2.28 1.89
1.60 1.56 2.76 3.15 3.05 2.81 2.68 2.65 2.63 2.61 2.60 2.45 2.28 2.15 1.93 1.73 1.74 1.89 1.74 1.65 1.53 1.45 1.60 1.82 1.85 1.89 1.80 1.78 1.85 1.82 1.73 1.61 1.70 1.67 1.66 1.68 1.49 1.46 1.41 1.55 1.96 2.22 1.75
1.37 1.44 2.20 3.10 3.03 2.73 2.70 2.68 2.55 2.51 2.44 2.23 2.07 1.90 1.82 1.65 1.62 1.70 1.70 1.69 1.59 1.46 1.56 1.77 1.95 2.01 1.98 2.00 2.03 1.96 1.86 1.80 1.76 1.73 2.13 2.58 2.01 1.65 1.59 1.57 1.64 1.68 1.67
1.14 1.23 1.74 2.57 2.52 2.44 2.44 2.32 2.24 2.11 2.00 2.03 1.99 1.80 1.72 1.65 1.69 1.73 1.68 1.61 1.53 1.43 1.49 1.69 1.88 1.87 1.91 2.00 1.93 1.91 1.84 1.88 1.96 1.82 2.12 2.56 2.43 2.00 1.85 1.80 1.65 1.65 1.80
0.99 1.18 1.79 2.37 2.30 2.29 2.24 2.03 2.01 1.86 1.74 1.74 1.81 1.72 1.74 1.63 1.59 1.61 1.61 1.59 1.58 1.55 1.56 1.67 1.72 1.73 1.87 1.95 1.87 1.85 1.88 2.02 2.01 1.69 1.74 2.13 2.65 2.34 1.92 1.88 1.77 1.78 1.89
1.08 1.15 1.55 2.03 2.02 2.00 1.93 1.90 1.86 1.74 1.73 1.65 1.61 1.61 1.66 1.62 1.55 1.50 1.57 1.54 1.53 1.73 1.84 1.82 1.80 1.89 1.89 1.95 1.91 1.93 2.01 1.98 1.79 1.80 1.88 2.15 2.52 2.33 1.81 1.63 1.74 1.87 1.96
1.00 1.00 1.27 1.80 1.78 1.74 1.75 1.81 1.85 1.79 1.76 1.66 1.58 1.64 1.75 1.68 1.60 1.55 1.61 1.61 1.57 1.67 1.90 1.86 1.81 1.84 1.80 1.88 1.91 1.85 1.93 1.88 1.74 1.88 1.99 2.23 2.24 2.14 1.76 1.58 1.75 1.85 1.95
1.10 1.01 1.13 1.70 1.81 1.69 1.73 1.72 1.76 1.83 1.76 1.65 1.58 1.57 1.63 1.61 1.54 1.53 1.53 1.63 1.63 1.70 1.85 1.83 1.73 1.71 1.58 1.61 1.69 1.69 1.76 1.62 1.43 1.59 1.85 2.19 2.35 2.18 1.70 1.53 1.54 1.72 1.86
1.36 1.30 1.34 1.49 1.57 1.70 1.74 1.69 1.84 1.98 1.87 1.65 1.50 1.46 1.43 1.48 1.46 1.43 1.45 1.59 1.63 1.70 1.78 1.76 1.71 1.73 1.61 1.56 1.61 1.67 1.73 1.53 1.33 1.56 1.54 2.02 2.46 2.28 1.83 1.56 1.47 1.64 1.76
1.31 1.27 1.32 1.42 1.43 1.45 1.57 1.80 2.00 2.33 2.20 1.79 1.53 1.37 1.38 1.32 1.32 1.41 1.38 1.50 1.60 1.73 1.91 1.89 1.87 1.77 1.78 1.68 1.66 1.72 1.64 1.30 1.27 1.30 1.52 1.87 2.54 2.36 1.87 1.59 1.44 1.42 1.48
1.00 1.05 1.16 1.23 1.25 1.33 1.32 1.55 1.98 2.37 2.39 1.97 1.61 1.48 1.27 0.95 0.94 1.17 1.36 1.60 1.72 1.85 2.12 2.18 2.10 1.92 1.77 1.69 1.69 1.66 1.34 1.05 1.28 1.35 1.62 2.10 2.46 2.33 1.90 1.61 1.43 1.40 1.32
0.80 0.76 0.79 0.83 0.94 1.02 1.03 1.33 1.62 1.67 1.87 1.61 1.53 1.41 1.27 1.20 1.14 1.00 1.15 1.59 1.84 1.88 2.05 2.22 2.19 1.84 1.45 1.30 1.39 1.40 1.10 1.02 1.13 1.24 1.59 2.28 2.62 2.41 1.90 1.59 1.48 1.46 1.34
0.75 0.72 0.66 0.66 0.73 0.86 0.99 1.17 1.37 1.52 1.68 1.65 1.58 1.53 1.55 1.53 1.20 1.06 1.13 1.27 1.46 1.54 1.50 1.61 1.66 1.44 1.22 1.17 1.26 1.16 0.96 0.94 1.04 1.17 1.62 2.30 2.72 2.54 2.00 1.65 1.61 1.58 1.55
0.63 0.72 0.68 0.54 0.56 0.65 0.75 0.93 1.10 1.30 1.50 1.53 1.33 1.25 1.39 1.44 1.26 1.15 1.29 1.33 1.41 1.50 1.54 1.53 1.44 1.27 1.07 1.06 1.18 1.17 1.00 0.99 1.05 1.14 1.52 1.94 2.40 2.57 2.33 1.99 1.91 1.81 1.83
0.63 0.70 0.73 0.64 0.59 0.63 0.69 0.76 0.80 1.09 1.25 1.38 1.44 1.21 1.32 1.38 1.32 1.22 1.20 1.37 1.34 1.43 1.46 1.50 1.51 1.37 1.26 1.17 1.19 1.16 1.20 1.11 1.06 1.06 1.33 1.52 1.77 2.27 2.52 2.45 2.35 2.11 2.00
0.59 0.67 0.70 0.72 0.70 0.70 0.71 0.71 0.70 0.76 0.84 0.92 0.88 0.85 1.03 1.18 1.21 1.23 1.14 1.21 1.30 1.47 1.68 1.72 1.54 1.45 1.37 1.33 1.35 1.31 1.28 1.21 1.16 1.05 1.22 1.32 1.27 1.51 1.98 2.50 2.72 2.49 2.30
0.56 0.62 0.68 0.73 0.79 0.80 0.81 0.86 0.82 0.76 0.77 0.75 0.70 0.71 0.81 0.93 1.03 1.15 1.21 1.19 1.23 1.47 1.73 1.87 1.71 1.57 1.42 1.42 1.42 1.41 1.32 1.31 1.24 1.14 1.24 1.41 1.27 1.23 1.57 2.14 2.66 2.78 2.63
0.56 0.53 0.56 0.58 0.66 0.72 0.77 0.82 0.90 0.89 0.88 0.84 0.85 0.81 0.77 0.91 1.04 1.16 1.25 1.21 1.22 1.42 1.68 1.90 1.94 1.91 1.82 1.73 1.62 1.54 1.46 1.57 1.43 1.31 1.34 1.45 1.57 1.42 1.40 1.61 2.02 2.47 2.69
0.49 0.42 0.42 0.46 0.48 0.51 0.56 0.64 0.76 0.84 0.90 0.97 0.98 0.98 0.99 1.05 1.08 1.20 1.41 1.44 1.42 1.54 1.66 1.71 1.85 1.87 1.92 1.90 1.68 1.63 1.55 1.66 1.73 1.63 1.69 1.70 1.74 1.69 1.52 1.33 1.46 1.70 2.22
0.40 0.39 0.39 0.41 0.40 0.39 0.42 0.52 0.65 0.73 0.79 0.99 1.06 1.09 1.37 1.50 1.31 1.28 1.43 1.46 1.49 1.68 1.76 1.86 2.08 2.03 1.93 2.02 1.82 1.70 1.66 1.65 1.68 1.84 1.96 1.90 1.83 1.71 1.68 1.48 1.52 1.46 1.77
0.26 0.24 0.29 0.33 0.39 0.38 0.33 0.39 0.53 0.66 0.78 0.92 1.11 1.14 1.37 1.50 1.43 1.45 1.47 1.49 1.52 1.61 1.69 1.88 2.22 2.24 2.06 1.95 2.15 2.14 2.04 1.83 1.74 1.78 1.84 1.97 1.98 1.81 1.79 1.78 1.67 1.55 1.45
0.23 0.18 0.19 0.23 0.32 0.38 0.41 0.46 0.60 0.80 0.92 1.03 1.21 1.26 1.35 1.39 1.39 1.34 1.50 1.59 1.56 1.69 1.78 1.96 2.27 2.49 2.25 2.06 2.41 2.87 2.63 2.33 1.98 1.73 1.71 1.66 1.83 1.84 1.72 1.60 1.55 1.53 1.47
0.17 0.14 0.17 0.25 0.38 0.53 0.69 0.93 1.18 1.48 1.65 1.57 1.46 1.52 1.62 1.68 1.63 1.59 1.68 1.79 1.71 1.76 1.87 1.93 2.03 2.51 2.66 2.40 2.35 2.93 2.81 2.60 2.55 2.01 1.57 1.42 1.62 1.76 1.77 1.66 1.59 1.65 1.65
0.21 0.26 0.36 0.48 0.63 0.78 0.98 1.21 1.47 1.73 1.93 1.97 2.02 2.06 2.03 1.96 1.84 1.73 1.76 1.81 1.81 1.87 1.85 1.72 1.89 2.35 2.83 2.88 2.66 2.45 2.30 2.27 2.46 2.34 1.76 1.43 1.49 1.62 1.78 1.67 1.63 1.73 1.77
0.37 0.51 0.61 0.84 0.99 1.12 1.18 1.27 1.49 1.59 1.68 1.80 1.97 2.03 2.04 1.98 1.86 1.70 1.65 1.76 1.81 1.88 1.88 1.94 2.11 2.41 2.70 2.97 2.95 2.69 2.39 2.17 1.81 1.99 1.97 1.73 1.47 1.39 1.45 1.54 1.66 1.70 1.75
0.67 0.90 1.02 1.13 1.23 1.21 1.18 1.20 1.32 1.46 1.56 1.66 1.83 1.90 1.85 1.75 1.71 1.63 1.60 1.61 1.59 1.66 1.76 1.95 2.19 2.33 2.52 2.75 2.83 2.56 2.38 2.27 2.07 1.92 1.76 1.79 1.75 1.46 1.31 1.29 1.39 1.54 1.59